Terminal Aerodrome Forecast
Issued by NWS Sioux Falls, SD

Home | Current Version | Previous Version | Text Only | Print | Product List | Glossary On
Versions: 1 2 3 4 5 6 7 8 9 10 11 12 13 14 15 16 17 18 19 20 21 22 23 24 25 26 27 28 29 30 31 32 33 34 35
000
FTUS43 KFSD 251400 AAA
TAFSUX
TAF AMD
KSUX 251409Z 2514/2612 14014KT P6SM SCT015 SCT120
     FM251800 29012KT P6SM SCT025
     FM252000 33010KT P6SM SCT035
     FM260100 34005KT P6SM FEW035
     FM260800 02004KT 5SM BR BKN180=

USA.gov is the U.S. government's official web portal to all federal, state and local government web resources and services.